Regional Weather Roundup
Issued by NWS

Home | Current Version | Previous Version | Text Only | Print | Product List | Glossary On
Versions: 1 2 3 4 5 6 7 8 9 10 11 12 13 14 15 16 17 18 19 20 21 22 23 24 25 26 27 28 29 30 31 32 33 34 35 36 37 38 39 40 41 42 43 44 45 46 47 48 49 50
000
ASUS43 KLSX 251207
RWRMO

WEATHER SUMMARY FOR MISSOURI
NATIONAL WEATHER SERVICE SPRINGFIELD MO
600 AM CST THU DEC 25 2014

NOTE: "FAIR" INDICATES FEW OR NO CLOUDS BELOW 12,000 FEET WITH NO
       SIGNIFICANT WEATHER AND/OR OBSTRUCTIONS TO VISIBILITY.
       CURRENT SKY AND/OR WEATHER CONDITIONS ARE NOT AVAILABLE FOR
       CHILLICOTHE AND FARMINGTON.

MOZ001>031-035>038-043-044-053-054-251300-
...NORTHERN AND WESTERN MISSOURI...

CITY           SKY/WX    TMP DP  RH WIND       PRES   REMARKS
KANSAS CTY INT PTCLDY    32  27  81 S13       29.76F WCI  22
6HR MIN TEMP:  30; 6HR MAX TEMP:  32;

KANSAS C DTWN  PTCLDY    33  28  81 S10       29.79F WCI  25
6HR MIN TEMP:  32; 6HR MAX TEMP:  34;

LEE`S SUMMIT   CLEAR     31  27  85 S13       29.81S WCI  21
6HR MIN TEMP:  30; 6HR MAX TEMP:  32;

ST JOSEPH      PTCLDY    30  26  85 S9        29.76F WCI  22
6HR MIN TEMP:  29; 6HR MAX TEMP:  31;

CHILLICOTHE      N/A     32  28  85 S9        29.83R WCI  24
6HR MIN TEMP:  31; 6HR MAX TEMP:  34;

KIRKSVILLE     CLEAR     31  29  92 S12       29.84R WCI  22
6HR MIN TEMP:  30; 6HR MAX TEMP:  33;


$$
MOZ066>068-077>081-088>096-101>105-251300-
...SOUTHWEST MISSOURI...

CITY           SKY/WX    TMP DP  RH WIND       PRES   REMARKS
SPRINGFIELD    CLEAR     31  27  85 S14       29.90R WCI  21
6HR MIN TEMP:  30; 6HR MAX TEMP:  32;

JOPLIN         CLEAR     35  28  75 S15       29.88S WCI  25
6HR MIN TEMP:  31; 6HR MAX TEMP:  36;


$$
MOZ032>034-039>042-045>050-055>058-069>072-251300-
...CENTRAL MISSOURI...

CITY           SKY/WX    TMP DP  RH WIND       PRES   REMARKS
COLUMBIA       CLEAR     30  28  92 S10       29.90R WCI  21
6HR MIN TEMP:  30; 6HR MAX TEMP:  35;

JEFFERSON CITY CLEAR     32  28  85 SE6       29.93R WCI  26
6HR MIN TEMP:  32; 6HR MAX TEMP:  37;

ROLLA          CLEAR     30  27  88 S10       29.91R WCI  21
6HR MIN TEMP:  30; 6HR MAX TEMP:  35;

SEDALIA        CLEAR     32  28  85 S12       29.87S WCI  23
6HR MIN TEMP:  31; 6HR MAX TEMP:  34;

WHITEMAN AFB   CLEAR     31  28  88 S9        29.85S WCI  23
WARRENSBURG    CLEAR     30  28  93 S8        29.85S WCI  23
OSAGE BEACH    CLEAR     30  27  86 S7        29.91S WCI  23

$$
MOZ051-052-059>065-251300-
...EAST CENTRAL MISSOURI...

CITY           SKY/WX    TMP DP  RH WIND       PRES   REMARKS
ST LOUIS INTL  PTCLDY    36  29  75 S5        29.97R
6HR MIN TEMP:  36; 6HR MAX TEMP:  39;

SPIRIT OF STL  CLEAR     32  28  85 S3        29.96R
6HR MIN TEMP:  31; 6HR MAX TEMP:  38;

ST CHARLES     CLEAR     34  30  85 S7        29.96R WCI  28
6HR MIN TEMP:  34; 6HR MAX TEMP:  38;


$$
MOZ072>076-082>087-097>100-106>115-251300-
...SOUTH CENTRAL AND SOUTHEAST MISSOURI...

CITY           SKY/WX    TMP DP  RH WIND       PRES   REMARKS
CAPE GIRARDEAU CLEAR     35  31  85 SW7       30.05R WCI  29
6HR MIN TEMP:  35; 6HR MAX TEMP:  39;

POPLAR BLUFF   CLEAR     33  28  81 S3        30.04R
6HR MIN TEMP:  33; 6HR MAX TEMP:  40;

WEST PLAINS    CLEAR     30  26  85 S6        29.97S WCI  24
6HR MIN TEMP:  27; 6HR MAX TEMP:  36;


$$


USA.gov is the U.S. government's official web portal to all federal, state and local government web resources and services.